Terug naar catalogus

SL-14 R/B

ActiefPO
NORAD 21656·ROCKET BODY·🇷🇺 Russia

Gelanceerd Aug 15, 1991 vanaf Plesetsk Cosmodrome

Loading…

Volgende Passages (komende 24 uur)

TLE

VersSource: Space-Track

Epoch: Sep 14, 2026, 10:52 UTC

1 21656U 91056B   26257.45302811 -.00000007  00000-0 -48852-4 0  9997
2 21656  82.5440  64.3414 0024261 203.0377 184.8727 13.20284431687190

Volg SL-14 R/B in realtime met AllMySat

Download on the App Store